Weather History for Livingston, MT

Change the Weather History Date:

Saturday, February 16, 2013

  Actual Average Record
Temperature  
Mean Temperature 42 °F 29 °F  
Max Temperature 48 °F 40 °F 63 °F (1996)
Min Temperature 35 °F 18 °F -19 °F (1956)
Degree Days  
Heating Degree Days 24 36  
Month to date heating degree days 589  
Since 1 July heating degree days 4930  
Moisture  
Dew Point 20 °F    
Average Humidity 44    
Maximum Humidity 52    
Minimum Humidity 33    
Precipitation  
Precipitation 0.00 in 0.01 in 0.32 in (1961)
Month to date precipitation 0.26  
Year to date precipitation 0.75  
Sea Level Pressure  
Sea Level Pressure 30.01 in    
Wind  
Wind Speed 34 mph (SW)    
Max Wind Speed 43 mph    
Max Gust Speed 56 mph    
Visibility 10 miles    
Events      
T = Trace of Precipitation, MM = Missing Value Source: NWS Daily Summary

Daily Weather History Graph

Daily Weather History Graph

Search for Another Location

Airport:

Trip Planner

Search our weather history database for the weather conditions in past years. The results will help you decide how hot, cold, wet, or windy it might be!

Date:

Astronomy

Feb. 16, 2013 Rise Set
Actual Time 7:21 AM MST 5:50 PM MST
Civil Twilight 6:51 AM MST 6:21 PM MST
Nautical Twilight 6:16 AM MST 6:55 PM MST
Astronomical Twilight 5:42 AM MST 7:30 PM MST
Moon 10:14 AM MST (2/16) 12:15 AM MST (2/16)
Length of Visible Light 11h 29m
Length of Day
10h 28m
Waxing Crescent, 40% of the Moon is Illuminated
Feb 16
Waxing Crescent
Feb 17
First Quarter
Feb 25
Full
Mar 4
Last Quarter
Mar 11
New

Hourly Weather History & Observations

Time (MST) Temp. Windchill Dew Point Humidity Pressure Visibility Wind Dir Wind Speed Gust Speed Precip Events Conditions
12:53 AM 37.0 °F 24.7 °F 19.0 °F 48% 30.21 in 10.0 mi West 28.8 mph 48.3 mph N/A   Clear
1:25 AM 35.6 °F 21.7 °F 19.4 °F 52% 30.14 in 10.0 mi SW 34.5 mph 50.6 mph N/A   Clear
1:53 AM 36.0 °F 21.0 °F 19.0 °F 50% 30.17 in 10.0 mi SSW 42.6 mph 56.4 mph N/A   Clear
2:53 AM 35.1 °F 21.4 °F 19.0 °F 52% 30.17 in 10.0 mi WSW 32.2 mph 48.3 mph N/A   Clear
3:53 AM 37.0 °F 22.8 °F 19.0 °F 48% 30.13 in 10.0 mi SW 40.3 mph 47.2 mph N/A   Clear
4:53 AM 37.0 °F 23.1 °F 19.0 °F 48% 30.12 in 10.0 mi SW 38.0 mph 50.6 mph N/A   Clear
5:53 AM 37.9 °F 24.2 °F 19.0 °F 47% 30.12 in 10.0 mi SW 39.1 mph 47.2 mph N/A   Clear
6:53 AM 37.0 °F 23.9 °F 19.0 °F 48% 30.14 in 10.0 mi SW 33.4 mph 44.9 mph N/A   Clear
7:53 AM 36.0 °F 25.0 °F 19.9 °F 52% 30.17 in 10.0 mi WSW 20.7 mph 44.9 mph N/A   Clear
8:53 AM 39.0 °F 27.0 °F 19.9 °F 46% 30.14 in 10.0 mi SW 31.1 mph 44.9 mph N/A   Clear
9:53 AM 41.0 °F 29.0 °F 19.9 °F 43% 30.12 in 10.0 mi SSW 35.7 mph 48.3 mph N/A   Clear
10:53 AM 45.0 °F 34.4 °F 21.0 °F 39% 30.09 in 10.0 mi SSW 35.7 mph 47.2 mph N/A   Clear
11:53 AM 46.9 °F - 21.0 °F 36% 30.05 in 10.0 mi SSW 31.1 mph 43.7 mph N/A   Clear
12:53 PM 48.0 °F - 19.9 °F 33% 30.01 in 10.0 mi SW 34.5 mph 46.0 mph N/A   Clear
1:53 PM 48.0 °F - 21.0 °F 34% 30.00 in 10.0 mi SSW 36.8 mph 48.3 mph N/A   Clear
2:53 PM 48.0 °F - 21.0 °F 34% 29.96 in 10.0 mi SW 36.8 mph 46.0 mph N/A   Clear
3:53 PM 46.9 °F - 21.0 °F 36% 29.93 in 10.0 mi SW 31.1 mph 46.0 mph N/A   Clear
4:53 PM 44.1 °F 33.2 °F 21.0 °F 40% 29.89 in 10.0 mi SW 35.7 mph 55.2 mph N/A   Clear
5:53 PM 42.1 °F 30.0 °F 21.0 °F 43% 29.89 in 10.0 mi SW 39.1 mph 50.6 mph N/A   Clear
6:53 PM 39.9 °F 27.1 °F 19.9 °F 45% 29.86 in 10.0 mi SSW 38.0 mph 54.1 mph N/A   Clear
7:53 PM 39.0 °F 25.3 °F 19.9 °F 46% 29.83 in 10.0 mi SW 42.6 mph 54.1 mph N/A   Clear
8:53 PM 39.9 °F 27.1 °F 19.0 °F 43% 29.80 in 10.0 mi SSW 38.0 mph 52.9 mph N/A   Clear
9:53 PM 39.9 °F 27.6 °F 19.0 °F 43% 29.77 in 10.0 mi SSW 34.5 mph 52.9 mph N/A   Clear
10:53 PM 41.0 °F 29.8 °F 19.0 °F 41% 29.72 in 10.0 mi SW 29.9 mph 55.2 mph N/A   Clear
11:53 PM 39.9 °F 27.3 °F 19.0 °F 43% 29.70 in 10.0 mi SW 36.8 mph 46.0 mph N/A   Clear